When you browse on this site, cookies collect data to enhance your experience and personalize the content and advertising you see.
Visit our Privacy Policy to learn more. By continuing to use the site, you agree to this use of cookies and data.
  • In Österreich
  • Länderverzeichnis
  • Für 7 Tage
  • Wassertemperatur
  • Satellitenkarten
  • Wetterkarte
  • News
  • Widgets
  • user-avatar
    Anmelden

    Stündliche Wetter Ondjiwa

    Heute, 23 Januar, Mittwoch

    Zeit Temperatur Niederschläge Wind Luftdruck Luftfeuchtigkeit
    00:00 +25°C° 2.8 mm 3 m/S 666 mmHg 77%
    01:00 +23°C° 0 mm 5 m/S 666 mmHg 78%
    02:00 +23°C° 0.6 mm 4 m/S 666 mmHg 77%
    03:00 +24°C° 0.6 mm 3 m/S 666 mmHg 77%
    04:00 +24°C° 0.6 mm 3 m/S 666 mmHg 77%
    05:00 +24°C° 0 mm 2 m/S 666 mmHg 76%
    06:00 +24°C° 0 mm 2 m/S 667 mmHg 74%
    07:00 +24°C° 0 mm 2 m/S 667 mmHg 73%
    08:00 +26°C° 0 mm 2 m/S 667 mmHg 61%
    09:00 +28°C° 0 mm 3 m/S 668 mmHg 49%
    10:00 +30°C° 0 mm 3 m/S 668 mmHg 37%
    11:00 +33°C° 0 mm 3 m/S 668 mmHg 34%
    12:00 +34°C° 0 mm 3 m/S 667 mmHg 31%
    13:00 +35°C° 0 mm 3 m/S 667 mmHg 28%
    14:00 +36°C° 0 mm 3 m/S 666 mmHg 27%
    15:00 +36°C° 0 mm 3 m/S 666 mmHg 25%
    16:00 +36°C° 0 mm 3 m/S 665 mmHg 24%
    17:00 +35°C° 0 mm 2 m/S 665 mmHg 28%
    18:00 +32°C° 0 mm 1 m/S 665 mmHg 32%
    19:00 +30°C° 0 mm 1 m/S 664 mmHg 35%
    20:00 +30°C° 0 mm 1 m/S 665 mmHg 36%
    21:00 +29°C° 0 mm 1 m/S 665 mmHg 37%
    22:00 +29°C° 0 mm 1 m/S 666 mmHg 37%
    23:00 +28°C° 0 mm 2 m/S 666 mmHg 41%

    Morgen, 24 Januar, Donnerstag

    Zeit Temperatur Niederschläge Wind Luftdruck Luftfeuchtigkeit
    00:00 +27°C° 0 mm 2 m/S 666 mmHg 44%
    01:00 +27°C° 0 mm 3 m/S 666 mmHg 47%
    02:00 +26°C° 0 mm 2 m/S 665 mmHg 48%
    03:00 +25°C° 0 mm 2 m/S 665 mmHg 48%
    04:00 +24°C° 0 mm 2 m/S 665 mmHg 49%
    05:00 +24°C° 0 mm 2 m/S 665 mmHg 48%
    06:00 +25°C° 0 mm 2 m/S 666 mmHg 47%
    07:00 +25°C° 0 mm 1 m/S 666 mmHg 46%
    08:00 +27°C° 0 mm 2 m/S 667 mmHg 40%
    09:00 +30°C° 0 mm 2 m/S 667 mmHg 34%
    10:00 +32°C° 0 mm 2 m/S 668 mmHg 28%
    11:00 +34°C° 0 mm 1 m/S 668 mmHg 26%
    12:00 +36°C° 0 mm 1 m/S 667 mmHg 25%
    13:00 +37°C° 0 mm 1 m/S 667 mmHg 23%
    14:00 +37°C° 0 mm 1 m/S 666 mmHg 23%
    15:00 +36°C° 0 mm 1 m/S 666 mmHg 23%
    16:00 +36°C° 0 mm 1 m/S 665 mmHg 23%
    17:00 +34°C° 0 mm 1 m/S 665 mmHg 26%
    18:00 +33°C° 0 mm 1 m/S 665 mmHg 29%
    19:00 +31°C° 0 mm 1 m/S 664 mmHg 32%
    20:00 +30°C° 0 mm 2 m/S 665 mmHg 35%
    21:00 +30°C° 0 mm 2 m/S 665 mmHg 37%
    22:00 +29°C° 0 mm 2 m/S 666 mmHg 40%
    23:00 +28°C° 0 mm 3 m/S 666 mmHg 44%

    übermorgen, 25 Januar, Freitag

    Zeit Temperatur Niederschläge Wind Luftdruck Luftfeuchtigkeit
    00:00 +27°C° 0 mm 3 m/S 665 mmHg 48%
    01:00 +26°C° 0 mm 3 m/S 665 mmHg 51%
    02:00 +26°C° 0 mm 3 m/S 665 mmHg 51%
    03:00 +25°C° 0 mm 3 m/S 665 mmHg 51%
    04:00 +25°C° 0 mm 3 m/S 665 mmHg 51%
    05:00 +25°C° 0 mm 3 m/S 666 mmHg 50%
    06:00 +25°C° 0 mm 3 m/S 666 mmHg 49%
    07:00 +25°C° 0 mm 2 m/S 667 mmHg 47%
    08:00 +28°C° 0 mm 2 m/S 667 mmHg 42%
    09:00 +31°C° 0 mm 2 m/S 668 mmHg 36%
    10:00 +34°C° 0 mm 2 m/S 669 mmHg 30%
    11:00 +35°C° 0 mm 2 m/S 668 mmHg 28%
    12:00 +37°C° 0 mm 2 m/S 668 mmHg 26%
    13:00 +38°C° 0 mm 2 m/S 668 mmHg 23%
    14:00 +36°C° 0 mm 1 m/S 667 mmHg 24%
    15:00 +36°C° 0 mm 1 m/S 666 mmHg 26%
    16:00 +35°C° 0 mm 1 m/S 665 mmHg 27%
    17:00 +34°C° 0 mm 1 m/S 666 mmHg 28%
    18:00 +33°C° 0 mm 1 m/S 666 mmHg 29%
    19:00 +32°C° 0 mm 1 m/S 666 mmHg 30%
    20:00 +31°C° 0 mm 1 m/S 666 mmHg 33%
    21:00 +31°C° 0 mm 1 m/S 667 mmHg 35%
    22:00 +30°C° 0 mm 2 m/S 667 mmHg 37%
    23:00 +29°C° 0 mm 2 m/S 667 mmHg 41%

    26 Januar, Samstag

    Zeit Temperatur Niederschläge Wind Luftdruck Luftfeuchtigkeit
    00:00 +28°C° 0 mm 2 m/S 667 mmHg 45%
    01:00 +27°C° 0 mm 2 m/S 666 mmHg 50%
    02:00 +26°C° 0.1 mm 2 m/S 666 mmHg 52%
    03:00 +26°C° 0.1 mm 1 m/S 666 mmHg 55%
    04:00 +25°C° 0.1 mm 1 m/S 666 mmHg 58%
    05:00 +26°C° 0 mm 2 m/S 666 mmHg 56%
    06:00 +26°C° 0 mm 2 m/S 667 mmHg 55%
    07:00 +27°C° 0 mm 2 m/S 668 mmHg 53%
    08:00 +28°C° 0 mm 2 m/S 668 mmHg 50%
    09:00 +29°C° 0 mm 2 m/S 668 mmHg 47%
    10:00 +30°C° 0 mm 2 m/S 669 mmHg 43%
    11:00 +33°C° 0 mm 1 m/S 668 mmHg 38%
    12:00 +35°C° 0 mm 1 m/S 668 mmHg 32%
    13:00 +37°C° 0 mm 1 m/S 668 mmHg 27%
    14:00 +37°C° 0 mm 1 m/S 667 mmHg 26%
    15:00 +37°C° 0 mm 1 m/S 667 mmHg 25%
    16:00 +37°C° 0 mm 1 m/S 666 mmHg 24%
    17:00 +35°C° 0 mm 1 m/S 666 mmHg 27%
    18:00 +34°C° 0 mm 1 m/S 666 mmHg 30%
    19:00 +32°C° 0 mm 2 m/S 666 mmHg 33%
    20:00 +31°C° 0 mm 2 m/S 666 mmHg 35%
    21:00 +30°C° 0 mm 2 m/S 667 mmHg 38%
    22:00 +29°C° 0 mm 2 m/S 667 mmHg 41%
    23:00 +28°C° 0.1 mm 3 m/S 667 mmHg 43%

    27 Januar, Sonntag

    Zeit Temperatur Niederschläge Wind Luftdruck Luftfeuchtigkeit
    00:00 +27°C° 0.1 mm 4 m/S 667 mmHg 46%
    01:00 +26°C° 0.1 mm 5 m/S 667 mmHg 49%
    02:00 +26°C° 0 mm 4 m/S 666 mmHg 49%
    03:00 +25°C° 0 mm 4 m/S 666 mmHg 49%
    04:00 +25°C° 0 mm 3 m/S 666 mmHg 48%
    05:00 +25°C° 0 mm 3 m/S 666 mmHg 50%
    06:00 +25°C° 0 mm 3 m/S 667 mmHg 52%
    07:00 +25°C° 0 mm 4 m/S 667 mmHg 54%
    08:00 +27°C° 0 mm 3 m/S 668 mmHg 45%
    09:00 +30°C° 0 mm 3 m/S 668 mmHg 37%
    10:00 +32°C° 0 mm 2 m/S 669 mmHg 28%
    11:00 +35°C° 0 mm 2 m/S 668 mmHg 25%
    12:00 +37°C° 0 mm 2 m/S 668 mmHg 23%
    13:00 +39°C° 0 mm 2 m/S 668 mmHg 20%
    14:00 +38°C° 0 mm 2 m/S 667 mmHg 20%
    15:00 +38°C° 0 mm 2 m/S 666 mmHg 19%
    16:00 +38°C° 0 mm 2 m/S 665 mmHg 19%
    17:00 +36°C° 0 mm 2 m/S 665 mmHg 22%
    18:00 +34°C° 0 mm 1 m/S 665 mmHg 24%
    19:00 +32°C° 0 mm 1 m/S 665 mmHg 26%
    20:00 +31°C° 0 mm 1 m/S 665 mmHg 29%
    21:00 +30°C° 0 mm 2 m/S 666 mmHg 31%
    22:00 +29°C° 0 mm 2 m/S 666 mmHg 33%
    23:00 +29°C° 0 mm 2 m/S 666 mmHg 35%

    28 Januar, Montag

    Zeit Temperatur Niederschläge Wind Luftdruck Luftfeuchtigkeit
    00:00 +28°C° 0 mm 2 m/S 666 mmHg 37%
    01:00 +27°C° 0 mm 1 m/S 666 mmHg 38%
    02:00 +26°C° 0 mm 2 m/S 666 mmHg 38%
    03:00 +26°C° 0 mm 2 m/S 666 mmHg 37%
    04:00 +25°C° 0 mm 2 m/S 666 mmHg 37%
    05:00 +25°C° 0 mm 2 m/S 666 mmHg 37%
    06:00 +25°C° 0 mm 2 m/S 667 mmHg 38%
    07:00 +26°C° 0 mm 1 m/S 667 mmHg 38%
    08:00 +28°C° 0 mm 1 m/S 668 mmHg 32%
    09:00 +31°C° 0 mm 1 m/S 668 mmHg 26%
    10:00 +33°C° 0 mm 1 m/S 669 mmHg 20%
    11:00 +35°C° 0 mm 1 m/S 668 mmHg 18%
    12:00 +37°C° 0 mm 1 m/S 668 mmHg 17%
    13:00 +40°C° 0 mm 1 m/S 667 mmHg 16%
    14:00 +40°C° 0 mm 1 m/S 667 mmHg 15%
    15:00 +40°C° 0 mm 1 m/S 666 mmHg 15%
    16:00 +37°C° 0 mm 0 m/S 665 mmHg 15%
    17:00 +35°C° 0 mm 0 m/S 665 mmHg 17%
    18:00 +33°C° 0 mm 0 m/S 665 mmHg 19%
    19:00 +31°C° 0 mm 0 m/S 665 mmHg 21%
    20:00 +33°C° 0 mm 1 m/S 665 mmHg 25%
    21:00 +32°C° 0 mm 1 m/S 666 mmHg 29%
    22:00 +31°C° 0 mm 2 m/S 666 mmHg 33%
    23:00 +30°C° 0.1 mm 2 m/S 666 mmHg 38%
    Mehr zeigen